FW1589 Weather Reports


Display with metric or nautical units.
time (UTC)temp
F
wind
direction
speed
MPH
gust
MPH
rain 1hr
in
rain 24hr
in
rain mn
in
humidity
%
barometer
mb
20260903135635 60 167 3.0 7.0 0.00 0.00 0.00 89 997.6
20260903135129 60 171 3.0 7.0 0.00 0.00 0.00 89 997.6
20260903134623 60 191 3.0 6.0 0.00 0.00 0.00 89 997.7
20260903134117 60 188 2.0 5.0 0.00 0.00 0.00 89 997.6
20260903133611 60 168 2.0 6.0 0.00 0.00 0.00 89 997.6
20260903133105 60 178 2.0 6.0 0.00 0.00 0.00 89 997.5
20260903132558 60 190 2.0 4.0 0.00 0.00 0.00 89 997.4
20260903132053 60 175 2.0 4.0 0.00 0.00 0.00 89 997.5
20260903131546 61 192 1.0 4.0 0.00 0.00 0.00 89 997.5
20260903130534 61 180 1.0 4.0 0.00 0.00 0.00 89 997.6
20260903130029 61 198 1.0 4.0 0.00 0.00 0.00 89 997.6
20260903125523 61 192 1.0 4.0 0.00 0.00 0.00 89 997.6
20260903124511 61 176 1.0 4.0 0.00 0.00 0.00 89 997.6
20260903124004 61 169 1.0 4.0 0.00 0.00 0.00 89 997.6
20260903123459 61 165 1.0 4.0 0.00 0.00 0.00 89 997.7
20260903122953 61 166 1.0 4.0 0.00 0.00 0.00 89 997.7
20260903122447 61 163 1.0 3.0 0.00 0.00 0.00 89 997.7
20260903121941 61 221 2.0 5.0 0.00 0.00 0.00 89 997.8
20260903120929 61 196 2.0 7.0 0.00 0.00 0.00 89 997.7
20260903115412 61 184 1.0 4.0 0.00 0.00 0.00 89 997.9
20260903114904 61 246 1.0 3.0 0.00 0.00 0.00 89 997.9
20260903114359 61 250 1.0 4.0 0.00 0.00 0.00 89 997.9
20260903113853 61 207 1.0 4.0 0.00 0.00 0.00 89 997.9
20260903113346 61 234 1.0 3.0 0.00 0.00 0.00 89 998.0
20260903112841 61 192 1.0 4.0 0.00 0.00 0.00 89 998.1
20260903112335 61 254 2.0 6.0 0.00 0.00 0.00 89 998.1
20260903111830 61 247 2.0 6.0 0.00 0.00 0.00 89 998.2
20260903110817 61 178 1.0 4.0 0.00 0.00 0.00 89 998.2
20260903110310 61 254 1.0 3.0 0.00 0.00 0.00 89 998.3
20260903105258 61 238 1.0 3.0 0.00 0.00 0.00 89 998.4
20260903104753 61 252 1.0 3.0 0.00 0.00 0.00 89 998.3
20260903104247 61 246 1.0 4.0 0.00 0.00 0.00 89 998.4
20260903103238 61 224 1.0 3.0 0.00 0.00 0.00 89 998.5
20260903102738 61 228 1.0 4.0 0.00 0.00 0.00 89 998.4
20260903102239 61 239 2.0 4.0 0.00 0.00 0.00 89 998.5
20260903101737 61 221 1.0 3.0 0.00 0.00 0.00 89 998.4
20260903101238 60 250 1.0 3.0 0.00 0.00 0.00 89 998.5
20260903100739 60 253 1.0 3.0 0.00 0.00 0.00 89 998.5
20260903100237 60 252 2.0 4.0 0.00 0.00 0.00 89 998.5
20260903095734 60 225 2.0 5.0 0.00 0.00 0.00 89 998.6
20260903095234 60 232 2.0 5.0 0.00 0.00 0.00 89 998.7
20260903094734 60 261 2.0 4.0 0.00 0.00 0.00 89 998.6
20260903094232 60 250 2.0 4.0 0.00 0.00 0.00 89 998.6
20260903093732 60 177 2.0 4.0 0.00 0.00 0.00 89 998.6
20260903093229 60 247 2.0 4.0 0.00 0.00 0.00 89 998.7
20260903092731 60 234 2.0 5.0 0.00 0.00 0.00 89 998.7
20260903091730 60 221 1.0 3.0 0.00 0.00 0.00 89 998.8
20260903091230 60 221 1.0 3.0 0.00 0.00 0.00 89 998.8
20260903090725 60 240 1.0 3.0 0.00 0.00 0.00 89 998.8
20260903090218 60 240 0.0 3.0 0.00 0.00 0.00 89 998.9
20260903085712 60 238 0.0 0.0 0.00 0.00 0.00 89 998.9
20260903085207 60 229 0.0 0.0 0.00 0.00 0.00 89 998.9
20260903084701 60 229 0.0 0.0 0.00 0.00 0.00 89 999.0
20260903084154 60 204 0.0 3.0 0.00 0.00 0.00 89 999.0
20260903083648 60 211 1.0 3.0 0.00 0.00 0.00 89 999.0
20260903083142 60 192 1.0 4.0 0.00 0.00 0.00 89 999.0
20260903082637 60 188 0.0 1.0 0.00 0.00 0.00 89 999.1
20260903082131 60 237 1.0 4.0 0.00 0.00 0.00 89 999.0
20260903081118 60 175 0.0 2.0 0.00 0.00 0.00 88 999.0
20260903080613 60 175 0.0 3.0 0.00 0.00 0.00 88 998.9
20260903080109 60 175 0.0 3.0 0.00 0.00 0.00 89 999.0
20260903075610 60 175 1.0 3.0 0.00 0.00 0.00 88 999.0
20260903075109 60 175 1.0 4.0 0.00 0.00 0.00 88 998.8
20260903074611 60 178 2.0 4.0 0.00 0.00 0.00 88 998.9
20260903074110 60 186 2.0 5.0 0.00 0.00 0.00 88 999.0
20260903073610 60 176 1.0 5.0 0.00 0.00 0.00 88 998.9
20260903072104 60 175 0.0 3.0 0.00 0.00 0.00 88 999.0
20260903071603 60 173 0.0 3.0 0.00 0.00 0.00 88 999.0
20260903070605 60 282 0.0 1.0 0.00 0.00 0.00 88 998.9
20260903070104 60 282 0.0 3.0 0.00 0.00 0.00 88 999.0
20260903065605 60 288 1.0 3.0 0.00 0.00 0.00 87 998.9
20260903065101 60 294 1.0 3.0 0.00 0.00 0.00 87 998.9
20260903064100 60 254 0.0 1.0 0.00 0.00 0.00 87 998.9
20260903063101 60 254 0.0 0.0 0.00 0.00 0.00 87 999.1
20260903062600 60 254 0.0 1.0 0.00 0.00 0.00 87 999.1
20260903062100 60 254 0.0 1.0 0.00 0.00 0.00 87 999.1
20260903061600 60 254 0.0 2.0 0.00 0.00 0.00 87 999.2
20260903061101 60 254 0.0 2.0 0.00 0.00 0.00 87 999.3
20260903055559 60 281 0.0 3.0 0.00 0.00 0.00 87 999.3
20260903055100 60 278 0.0 3.0 0.00 0.00 0.00 87 999.4
20260903054101 60 281 1.0 3.0 0.00 0.00 0.00 87 999.3
20260903053600 60 283 1.0 4.0 0.00 0.00 0.00 87 999.4
20260903053101 60 276 1.0 6.0 0.00 0.00 0.00 87 999.4
20260903052600 60 265 2.0 6.0 0.00 0.00 0.00 87 999.5
20260903052101 60 269 1.0 3.0 0.00 0.00 0.00 86 999.5
20260903051559 60 275 1.0 3.0 0.00 0.00 0.00 87 999.6
20260903051059 60 264 1.0 3.0 0.00 0.00 0.00 87 999.6
20260903050600 60 238 1.0 2.0 0.00 0.00 0.00 86 999.6
20260903050101 60 213 1.0 3.0 0.00 0.00 0.00 86 999.6
20260903045600 60 259 1.0 3.0 0.00 0.00 0.00 86 999.6
20260903045101 60 214 1.0 3.0 0.00 0.00 0.00 86 999.6
20260903044557 61 292 1.0 3.0 0.00 0.00 0.00 86 999.5
20260903044058 61 213 0.0 3.0 0.00 0.00 0.00 86 999.5
20260903043551 61 302 0.0 2.0 0.00 0.00 0.00 85 999.5
20260903042550 61 303 1.0 6.0 0.00 0.00 0.00 86 999.5
20260903042048 61 228 0.0 0.0 0.00 0.00 0.00 85 999.4
20260903041549 61 228 0.0 2.0 0.00 0.00 0.00 85 999.4
20260903041044 61 229 1.0 3.0 0.00 0.00 0.00 85 999.3
20260903040543 61 229 1.0 4.0 0.00 0.00 0.00 85 999.3
20260903040039 61 231 1.0 4.0 0.00 0.00 0.00 85 999.3
20260903035539 62 208 1.0 4.0 0.00 0.00 0.00 85 999.3
20260903034540 62 229 1.0 5.0 0.00 0.00 0.00 84 999.1
20260903034041 62 199 1.0 5.0 0.00 0.00 0.00 84 999.1
20260903033538 62 234 2.0 5.0 0.00 0.00 0.00 83 999.1
20260903033037 62 202 2.0 7.0 0.00 0.00 0.00 83 998.9
20260903032536 62 218 2.0 7.0 0.00 0.00 0.00 82 998.9
20260903031536 62 187 1.0 4.0 0.00 0.00 0.00 82 998.7
20260903031036 62 234 1.0 4.0 0.00 0.00 0.00 82 998.7
20260903030036 62 147 2.0 3.0 0.00 0.00 0.00 82 998.6
20260903025530 63 234 2.0 5.0 0.00 0.00 0.00 81 998.6
20260903025024 63 184 2.0 5.0 0.00 0.00 0.00 81 998.6
20260903024518 63 169 2.0 5.0 0.00 0.00 0.00 81 998.6
20260903024011 63 188 2.0 4.0 0.00 0.00 0.00 80 998.6
20260903023506 64 255 1.0 3.0 0.00 0.00 0.00 79 998.7
20260903022959 64 223 1.0 3.0 0.00 0.00 0.00 79 998.7
20260903022454 64 208 1.0 3.0 0.00 0.00 0.00 79 998.8
20260903021948 64 203 2.0 5.0 0.00 0.00 0.00 79 998.8
20260903021442 64 247 3.0 6.0 0.00 0.00 0.00 78 998.8
20260903020936 64 167 3.0 6.0 0.00 0.00 0.00 77 998.9
20260903020429 65 197 3.0 6.0 0.00 0.00 0.00 77 998.9
20260903015923 65 173 2.0 5.0 0.00 0.00 0.00 77 998.9
20260903015418 65 172 2.0 7.0 0.00 0.00 0.00 77 999.0
20260903014911 66 223 3.0 7.0 0.00 0.00 0.00 77 999.1
20260903014405 66 221 3.0 6.0 0.00 0.00 0.00 77 999.0
20260903013859 66 275 2.0 6.0 0.00 0.00 0.00 77 999.1
20260903012848 66 200 3.0 6.0 0.00 0.00 0.00 76 999.0
20260903011836 66 187 3.0 7.0 0.00 0.00 0.00 77 999.1
20260903011330 66 250 3.0 7.0 0.00 0.00 0.00 76 999.1
20260903010318 67 213 3.0 7.0 0.00 0.00 0.00 75 999.1
20260903005812 67 226 4.0 8.0 0.00 0.00 0.00 75 999.2
20260903005306 67 236 5.0 10.0 0.00 0.00 0.00 74 999.1
20260903004800 67 180 4.0 10.0 0.00 0.00 0.00 74 999.1
20260903004254 67 217 3.0 5.0 0.00 0.00 0.00 74 999.1
20260903003748 67 239 4.0 7.0 0.00 0.00 0.00 74 999.1
20260903003243 68 248 3.0 7.0 0.00 0.00 0.00 73 999.2
20260903002735 68 236 4.0 6.0 0.00 0.00 0.00 73 999.2
20260903002229 68 214 3.0 7.0 0.00 0.00 0.00 73 999.3
20260903001724 69 234 3.0 7.0 0.00 0.00 0.00 74 999.3
20260903001218 68 235 3.0 7.0 0.00 0.00 0.00 75 999.4
20260903000712 68 273 3.0 7.0 0.00 0.00 0.00 75 999.3
20260903000206 68 203 4.0 8.0 0.00 0.00 0.00 75 999.4
20260902235700 68 163 4.0 8.0 0.00 0.00 0.00 75 999.3
20260902235154 68 219 4.0 8.0 0.00 0.00 0.00 74 999.3
20260902234648 68 196 3.0 7.0 0.00 0.00 0.00 73 999.4
20260902234141 69 179 4.0 10.0 0.00 0.00 0.00 72 999.4
20260902233635 69 267 3.0 10.0 0.00 0.00 0.00 71 999.5
20260902233129 70 232 4.0 10.0 0.00 0.00 0.00 71 999.5
20260902232623 69 203 4.0 10.0 0.00 0.00 0.00 71 999.4
20260902232117 69 234 5.0 11.0 0.00 0.00 0.00 69 999.4
20260902231612 69 283 5.0 11.0 0.00 0.00 0.00 69 999.5
20260902231105 69 281 5.0 9.0 0.00 0.00 0.00 69 999.5
20260902230600 69 190 5.0 9.0 0.00 0.00 0.00 68 999.7
20260902230054 69 241 5.0 12.0 0.00 0.00 0.00 68 999.7
20260902225547 70 215 5.0 12.0 0.00 0.00 0.00 67 999.7
20260902225042 70 242 5.0 10.0 0.00 0.00 0.00 66 999.7
20260902224536 70 208 5.0 12.0 0.00 0.00 0.00 66 999.9
20260902224030 70 246 5.0 12.0 0.00 0.00 0.00 66 999.8
20260902223524 71 204 4.0 9.0 0.00 0.00 0.00 65 999.8
20260902223018 71 207 4.0 9.0 0.00 0.00 0.00 65 1000.0
20260902222006 71 196 4.0 12.0 0.00 0.00 0.00 66 1000.0
20260902221500 70 238 4.0 12.0 0.00 0.00 0.00 68 999.9
20260902220953 70 275 5.0 11.0 0.00 0.00 0.00 68 1000.0
20260902220447 70 282 5.0 11.0 0.00 0.00 0.00 69 1000.1
20260902215942 69 255 5.0 10.0 0.00 0.00 0.00 70 1000.1
20260902215436 69 229 5.0 10.0 0.00 0.00 0.00 70 1000.2
20260902214929 69 244 6.0 10.0 0.00 0.00 0.00 69 1000.2
20260902214424 69 227 5.0 10.0 0.00 0.00 0.00 69 1000.2
20260902213918 70 206 4.0 8.0 0.00 0.00 0.00 70 1000.2
20260902213411 69 225 4.0 11.0 0.00 0.00 0.00 69 1000.2
20260902212906 69 198 5.0 11.0 0.00 0.00 0.00 69 1000.2
20260902212359 70 243 5.0 11.0 0.00 0.00 0.00 69 1000.2
20260902211854 70 262 5.0 10.0 0.00 0.00 0.00 71 1000.2
20260902211348 70 318 5.0 11.0 0.00 0.00 0.00 70 1000.3
20260902210842 70 214 4.0 11.0 0.00 0.00 0.00 71 1000.2
20260902205836 70 257 4.0 11.0 0.00 0.00 0.00 72 1000.3
20260902204835 69 220 5.0 10.0 0.00 0.00 0.00 74 1000.2
20260902204336 69 279 5.0 10.0 0.00 0.00 0.00 74 1000.3
20260902203836 69 264 4.0 11.0 0.00 0.00 0.00 74 1000.3
20260902203334 69 255 5.0 12.0 0.00 0.00 0.00 74 1000.3
20260902202335 68 257 3.0 11.0 0.00 0.00 0.00 78 1000.2
20260902201834 67 279 3.0 8.0 0.00 0.00 0.00 80 1000.3
20260902200835 66 223 4.0 11.0 0.00 0.00 0.00 82 1000.3
20260902200335 65 214 4.0 11.0 0.00 0.00 0.00 83 1000.4
20260902195836 65 300 4.0 11.0 0.00 0.00 0.00 83 1000.4
20260902195335 64 298 3.0 9.0 0.00 0.00 0.00 84 1000.6
20260902193831 64 254 4.0 10.0 0.00 0.00 0.00 83 1000.6
20260902193330 64 248 4.0 9.0 0.00 0.00 0.00 83 1000.6
20260902192831 65 291 3.0 9.0 0.00 0.00 0.00 83 1000.6
20260902191831 65 266 4.0 11.0 0.00 0.00 0.00 84 1000.7
20260902191331 64 273 3.0 11.0 0.00 0.00 0.00 84 1000.8
20260902190832 64 267 4.0 10.0 0.00 0.00 0.00 85 1000.8
20260902190331 64 252 4.0 10.0 0.00 0.00 0.00 85 1000.7
20260902185826 64 180 3.0 12.0 0.00 0.00 0.00 86 1000.7
20260902185326 63 267 3.0 12.0 0.00 0.00 0.00 86 1000.8
20260902184828 64 294 3.0 12.0 0.00 0.00 0.00 85 1000.7
20260902184326 64 273 2.0 10.0 0.00 0.00 0.00 86 1000.7
20260902183826 64 269 2.0 10.0 0.00 0.00 0.00 86 1000.7
20260902183327 64 231 2.0 10.0 0.00 0.00 0.00 85 1000.7
20260902182328 64 210 3.0 8.0 0.00 0.00 0.00 85 1000.6
20260902181323 64 220 3.0 8.0 0.00 0.00 0.00 84 1000.5
20260902180823 64 281 3.0 8.0 0.00 0.00 0.00 83 1000.5
20260902180322 64 279 3.0 9.0 0.00 0.00 0.00 83 1000.5
20260902175822 65 271 4.0 9.0 0.00 0.00 0.00 82 1000.4
20260902175323 65 280 3.0 9.0 0.00 0.00 0.00 80 1000.3
20260902174322 66 273 3.0 8.0 0.00 0.00 0.00 77 1000.3
20260902173823 66 262 3.0 8.0 0.00 0.00 0.00 76 1000.2
20260902173323 66 211 4.0 13.0 0.00 0.00 0.00 76 1000.1
20260902172820 66 206 5.0 13.0 0.00 0.00 0.00 76 999.9
20260902172320 66 187 5.0 13.0 0.00 0.00 0.00 75 999.9
20260902171820 67 182 5.0 13.0 0.00 0.00 0.00 75 999.9
20260902171322 66 221 4.0 10.0 0.00 0.00 0.00 74 999.7
20260902165821 66 191 5.0 10.0 0.00 0.00 0.00 75 999.8
20260902165321 66 251 5.0 10.0 0.00 0.00 0.00 76 999.8
20260902164822 65 175 5.0 11.0 0.00 0.00 0.00 75 999.7
20260902164320 65 240 5.0 11.0 0.00 0.00 0.00 75 999.7
20260902163821 65 207 5.0 11.0 0.00 0.00 0.00 76 999.8
20260902163321 65 175 5.0 10.0 0.00 0.00 0.00 76 999.7
20260902162821 64 253 4.0 7.0 0.00 0.00 0.00 77 999.6
20260902162314 64 200 4.0 8.0 0.00 0.00 0.00 77 999.8
20260902161807 64 160 4.0 8.0 0.00 0.00 0.00 77 999.7
20260902161301 64 159 4.0 10.0 0.00 0.00 0.00 78 999.7
20260902160755 63 192 4.0 10.0 0.00 0.00 0.00 78 999.6
20260902160249 63 155 4.0 10.0 0.00 0.00 0.00 78 999.6
20260902155742 63 182 4.0 8.0 0.00 0.00 0.00 78 999.6
20260902155238 63 197 4.0 8.0 0.00 0.00 0.00 78 999.5
20260902154738 63 177 3.0 7.0 0.00 0.00 0.00 79 999.5
20260902154239 62 177 4.0 8.0 0.00 0.00 0.00 78 999.6
20260902153238 62 162 2.0 6.0 0.00 0.00 0.00 79 999.7
20260902152740 62 182 2.0 6.0 0.00 0.00 0.00 79 999.7
20260902152239 62 194 3.0 5.0 0.00 0.00 0.00 79 999.7
20260902151738 62 201 2.0 5.0 0.00 0.00 0.00 79 999.8
20260902150737 61 188 2.0 5.0 0.00 0.00 0.00 80 999.7
20260902150236 61 205 3.0 7.0 0.00 0.00 0.00 79 999.6
20260902145736 61 194 3.0 8.0 0.00 0.00 0.00 79 999.6
20260902145236 61 180 2.0 8.0 0.00 0.00 0.00 79 999.4
20260902144738 61 161 2.0 5.0 0.00 0.00 0.00 79 999.3
20260902144237 60 153 1.0 5.0 0.00 0.00 0.00 79 999.1
20260902143737 60 171 2.0 6.0 0.00 0.00 0.00 79 998.9
20260902143230 60 148 3.0 6.0 0.00 0.00 0.00 79 998.9
20260902142724 60 165 3.0 7.0 0.00 0.00 0.00 80 998.8
20260902142219 60 146 3.0 10.0 0.00 0.00 0.00 79 999.0
20260902141719 60 146 3.0 10.0 0.00 0.00 0.00 80 999.0
20260902141207 60 157 2.0 8.0 0.00 0.00 0.00 80 998.9
20260902140701 60 153 3.0 6.0 0.00 0.00 0.00 80 998.9
20260902140155 60 185 3.0 7.0 0.00 0.00 0.00 80 999.1